H1 CPF 2 NER 2024 1 31 9 031 01 glonass141 H2 1908801 9141 44850 2024 1 31 0 0 0 2024 2 3 23 45 0 900 1 1 0 0 0 1 H9 10 0 60340 0.00000 0 9058357.270 7224211.621 22758053.732 10 0 60340 900.00000 0 6571251.148 8565798.456 23142547.994 10 0 60340 1800.00000 0 4174030.909 10099253.236 23079138.207 10 0 60340 2700.00000 0 1925495.632 11785744.746 22568981.512 10 0 60340 3600.00000 0 -123517.884 13576901.267 21621851.711 10 0 60340 4500.00000 0 -1932024.115 15416703.207 20255960.375 10 0 60340 5400.00000 0 -3470361.685 17243713.600 18497618.348 10 0 60340 6300.00000 0 -4721189.797 18993555.415 16380742.859 10 0 60340 7200.00000 0 -5679967.120 20601533.997 13946218.193 10 0 60340 8100.00000 0 -6354893.279 22005296.411 11241120.599 10 0 60340 9000.00000 0 -6766315.104 23147417.168 8317820.805 10 0 60340 9900.00000 0 -6945622.142 23977802.124 5232980.123 10 0 60340 10800.00000 0 -6933677.351 24455809.220 2046458.565 10 0 60340 11700.00000 0 -6778848.747 24551995.840 -1179844.466 10 0 60340 12600.00000 0 -6534724.938 24249417.787 -4383194.482 10 0 60340 13500.00000 0 -6257611.353 23544423.360 -7501247.461 10 0 60340 14400.00000 0 -6003913.752 22446907.149 -10473272.066 10 0 60340 15300.00000 0 -5827520.887 20980011.025 -13241343.629 10 0 60340 16200.00000 0 -5777298.555 19179283.308 -15751485.435 10 0 60340 17100.00000 0 -5894802.885 17091330.240 -17954733.783 10 0 60340 18000.00000 0 -6212311.463 14772015.691 -19808104.800 10 0 60340 18900.00000 0 -6751257.399 12284284.313 -21275443.137 10 0 60340 19800.00000 0 -7521134.227 9695699.477 -22328135.156 10 0 60340 20700.00000 0 -8518919.317 7075799.459 -22945672.151 10 0 60340 21600.00000 0 -9729041.234 4493382.972 -23116052.320 10 0 60340 22500.00000 0 -11123893.208 2013837.932 -22836013.650 10 0 60340 23400.00000 0 -12664871.453 -303374.612 -22111093.322 10 0 60340 24300.00000 0 -14303894.701 -2406976.360 -20955512.870 10 0 60340 25200.00000 0 -15985340.802 -4255773.683 -19391891.818 10 0 60340 26100.00000 0 -17648318.501 -5820127.028 -17450796.005 10 0 60340 27000.00000 0 -19229178.324 -7082927.785 -15170130.103 10 0 60340 27900.00000 0 -20664156.452 -8040043.615 -12594386.928 10 0 60340 28800.00000 0 -21892039.925 -8700215.807 -9773769.038 10 0 60340 29700.00000 0 -22856740.785 -9084415.479 -6763200.587 10 0 60340 30600.00000 0 -23509670.861 -9224688.281 -3621249.527 10 0 60340 31500.00000 0 -23811817.547 -9162538.723 -408981.976 10 0 60340 32400.00000 0 -23735433.789 -8946924.483 2811228.253 10 0 60340 33300.00000 0 -23265272.048 -8631947.155 5976911.352 10 0 60340 34200.00000 0 -22399311.318 -8274338.252 9026710.613 10 0 60340 35100.00000 0 -21148947.726 -7930847.379 11901565.523 10 0 60340 36000.00000 0 -19538641.641 -7655643.053 14545846.368 10 0 60340 36900.00000 0 -17605036.813 -7497835.543 16908419.101 10 0 60340 37800.00000 0 -15395588.764 -7499225.512 18943620.952 10 0 60340 38700.00000 0 -12966759.599 -7692372.398 20612129.266 10 0 60340 39600.00000 0 -10381853.975 -8099062.908 21881708.199 10 0 60340 40500.00000 0 -7708585.201 -8729243.219 22727820.304 10 0 60340 41400.00000 0 -5016471.141 -9580459.360 23134092.490 10 0 60340 42300.00000 0 -2374166.229 -10637829.276 23092628.337 10 0 60340 43200.00000 0 153161.708 -11874548.410 22604161.334 10 0 60340 44100.00000 0 2506303.068 -13252908.791 21678046.156 10 0 60340 45000.00000 0 4634225.822 -14725790.597 20332087.740 10 0 60340 45900.00000 0 6495952.039 -16238565.709 18592210.562 10 0 60340 46800.00000 0 8062014.793 -17731335.620 16491973.175 10 0 60340 47700.00000 0 9315435.481 -19141411.925 14071935.848 10 0 60340 48600.00000 0 10252181.099 -20405937.003 11378891.843 10 0 60340 49500.00000 0 10881082.259 -21464536.146 8464975.551 10 0 60340 50400.00000 0 11223214.999 -22261890.196 5386663.390 10 0 60340 51300.00000 0 11310771.859 -22750120.385 2203685.747 10 0 60340 52200.00000 0 11185469.246 -22890884.207 -1022129.572 10 0 60340 53100.00000 0 10896557.949 -22657092.627 -4228060.016 10 0 60340 54000.00000 0 10498520.795 -22034174.455 -7351713.405 10 0 60340 54900.00000 0 10048555.169 -21020832.522 -10332250.939 10 0 60340 55800.00000 0 9603947.681 -19629257.690 -13111583.184 10 0 60340 56700.00000 0 9219453.255 -17884789.698 -15635514.533 10 0 60340 57600.00000 0 8944791.004 -15825037.462 -17854812.552 10 0 60340 58500.00000 0 8822364.468 -13498494.551 -19726180.102 10 0 60340 59400.00000 0 8885304.296 -10962707.176 -21213110.241 10 0 60340 60300.00000 0 9155917.623 -8282071.128 -22286606.398 10 0 60340 61200.00000 0 9644610.997 -5525349.937 -22925753.200 10 0 60340 62100.00000 0 10349333.300 -2763018.322 -23118126.543 10 0 60340 63000.00000 0 11255562.839 -64542.258 -22860034.854 10 0 60340 63900.00000 0 12336839.451 2504290.435 -22156587.011 10 0 60340 64800.00000 0 13555819.106 4883877.458 -21021585.971 10 0 60340 65700.00000 0 14865806.262 7023042.953 -19477250.636 10 0 60340 66600.00000 0 16212698.814 8880919.003 -17553772.026 10 0 60340 67500.00000 0 17537263.009 10428390.259 -15288713.080 10 0 60340 68400.00000 0 18777641.748 11649042.823 -12726264.577 10 0 60340 69300.00000 0 19871989.881 12539579.691 -9916372.515 10 0 60340 70200.00000 0 20761124.922 13109687.640 -6913754.833 10 0 60340 71100.00000 0 21391081.168 13381363.717 -3776827.472 10 0 60340 72000.00000 0 21715459.531 13387732.181 -566561.537 10 0 60340 72900.00000 0 21697474.370 13171404.144 2654705.501 10 0 60340 73800.00000 0 21311611.591 12782451.124 5824480.986 10 0 60340 74700.00000 0 20544829.015 12276079.615 8881326.776 10 0 60340 75600.00000 0 19397249.309 11710105.858 11766044.090 10 0 60340 76500.00000 0 17882317.217 11142337.841 14422810.927 10 0 60340 77400.00000 0 16026415.115 10627974.829 16800250.755 10 0 60340 78300.00000 0 13867953.333 10217133.462 18852412.867 10 0 60340 79200.00000 0 11455973.163 9952603.648 20539646.784 10 0 60340 80100.00000 0 8848320.339 9867927.565 21829355.211 10 0 60340 81000.00000 0 6109463.986 9985881.396 22696612.476 10 0 60340 81900.00000 0 3308050.230 10317422.696 23124637.805 10 0 60340 82800.00000 0 514290.246 10861147.028 23105115.302 10 0 60340 83700.00000 0 -2202710.985 11603276.696 22638355.056 10 0 60340 84600.00000 0 -4777576.590 12518182.569 21733292.396 10 0 60340 85500.00000 0 -7151123.676 13569418.267 20407324.909 10 0 60341 0.00000 0 -9272572.435 14711224.755 18685989.654 10 0 60341 900.00000 0 -11101409.255 15890444.699 16602484.522 10 0 60341 1800.00000 0 -12608824.438 17048766.577 14197043.845 10 0 60341 2700.00000 0 -13778668.876 18125208.059 11516175.523 10 0 60341 3600.00000 0 -14607886.872 19058734.103 8611775.029 10 0 60341 4500.00000 0 -15106407.793 19790901.016 5540131.163 10 0 60341 5400.00000 0 -15296500.412 20268415.173 2360841.888 10 0 60341 6300.00000 0 -15211616.450 20445498.048 -864339.412 10 0 60341 7200.00000 0 -14894771.520 20285956.594 -4072704.937 10 0 60341 8100.00000 0 -14396531.546 19764869.966 -7201817.128 10 0 60341 9000.00000 0 -13772689.754 18869819.319 -10190732.407 10 0 60341 9900.00000 0 -13081732.916 17601606.568 -12981199.124 10 0 60341 10800.00000 0 -12382204.865 15974429.607 -15518805.145 10 0 60341 11700.00000 0 -11730079.940 14015504.537 -17754051.436 10 0 60341 12600.00000 0 -11176258.813 11764149.162 -19643329.458 10 0 60341 13500.00000 0 -10764294.032 9270364.958 -21149782.258 10 0 60341 14400.00000 0 -10528442.723 6592976.190 -22244031.621 10 0 60341 15300.00000 0 -10492129.906 3797403.774 -22904756.493 10 0 60341 16200.00000 0 -10666888.171 953166.957 -23119111.122 10 0 60341 17100.00000 0 -11051818.953 -1868782.616 -22882974.683 10 0 60341 18000.00000 0 -11633598.323 -4598782.839 -22201027.688 10 0 60341 18900.00000 0 -12387026.775 -7171125.340 -21086654.043 10 0 60341 19800.00000 0 -13276099.343 -9526550.803 -19561671.160 10 0 60341 20700.00000 0 -14255550.086 -11614471.590 -17655893.965 10 0 60341 21600.00000 0 -15272804.914 -13394829.668 -15406542.041 10 0 60341 22500.00000 0 -16270259.340 -14839513.398 -12857502.199 10 0 60341 23400.00000 0 -17187784.114 -15933275.562 -10058461.706 10 0 60341 24300.00000 0 -17965352.163 -16674116.244 -7063929.939 10 0 60341 25200.00000 0 -18545675.351 -17073116.809 -3932168.351 10 0 60341 26100.00000 0 -18876739.428 -17153734.457 -724050.465 10 0 60341 27000.00000 0 -18914130.164 -16950589.444 2498125.248 10 0 60341 27900.00000 0 -18623052.804 -16507798.267 5671845.999 10 0 60341 28800.00000 0 -17979960.200 -15876924.911 8735594.987 10 0 60341 29700.00000 0 -16973721.743 -15114637.863 11630037.938 10 0 60341 30600.00000 0 -15606284.589 -14280172.409 14299163.303 10 0 60341 31500.00000 0 -13892799.995 -13432705.317 16691354.682 10 0 60341 32400.00000 0 -11861209.811 -12628752.057 18760375.850 10 0 60341 33300.00000 0 -9551310.383 -11919695.168 20466250.631 10 0 60341 34200.00000 0 -7013332.465 -11349546.505 21776022.051 10 0 60341 35100.00000 0 -4306095.385 -10953036.019 22664377.575 10 0 60341 36000.00000 0 -1494810.758 -10754105.999 23114129.674 10 0 60341 36900.00000 0 1351374.779 -10764872.910 23116543.455 10 0 60341 37800.00000 0 4161997.975 -10985099.772 22671505.664 10 0 60341 38700.00000 0 6867952.162 -11402201.086 21787531.934 10 0 60341 39600.00000 0 9404106.517 -11991780.595 20481611.773 10 0 60341 40500.00000 0 11711764.706 -12718680.292 18778893.398 10 0 60341 41400.00000 0 13740862.408 -13538498.052 16712213.242 10 0 60341 42300.00000 0 15451813.444 -14399511.744 14321477.657 10 0 60341 43200.00000 0 16816928.246 -15244930.546 11652907.078 10 0 60341 44100.00000 0 17821345.622 -16015380.130 8758155.630 10 0 60341 45000.00000 0 18463438.498 -16651518.015 5693321.772 10 0 60341 45900.00000 0 18754676.097 -17096669.240 2517868.076 10 0 60341 46800.00000 0 18718947.582 -17299370.896 -706529.609 10 0 60341 47700.00000 0 18391374.930 -17215717.213 -3917181.408 10 0 60341 48600.00000 0 17816664.524 -16811404.636 -7051607.493 10 0 60341 49500.00000 0 17047066.766 -16063388.570 -10048762.486 10 0 60341 50400.00000 0 16140030.036 -14961079.569 -12850235.289 10 0 60341 51300.00000 0 15155648.603 -13507026.146 -15401399.743 10 0 60341 52200.00000 0 14154013.230 -11717053.097 -17652492.431 10 0 60341 53100.00000 0 13192577.504 -9619847.539 -19559595.315 10 0 60341 54000.00000 0 12323652.407 -7256008.354 -21085502.984 10 0 60341 54900.00000 0 11592136.111 -4676597.744 -22200456.756 10 0 60341 55800.00000 0 11033575.886 -1941254.846 -22882730.688 10 0 60341 56700.00000 0 10672644.636 884049.995 -23119057.771 10 0 60341 57600.00000 0 10522096.759 3729526.478 -22904887.929 10 0 60341 58500.00000 0 10582247.348 6524236.051 -22244472.930 10 0 60341 59400.00000 0 10840996.323 9198812.353 -21150776.922 10 0 60341 60300.00000 0 11274395.739 11688116.783 -19645214.787 10 0 60341 61200.00000 0 11847735.334 13933718.433 -17757224.036 10 0 60341 62100.00000 0 12517099.270 15886095.289 -15523679.294 10 0 60341 63000.00000 0 13231327.106 17506465.584 -12988161.529 10 0 60341 63900.00000 0 13934294.867 18768173.943 -10200097.134 10 0 60341 64800.00000 0 14567418.725 19657575.962 -7213784.532 10 0 60341 65700.00000 0 15072274.535 20174386.203 -4087328.079 10 0 60341 66600.00000 0 15393221.878 20331477.200 -881500.935 10 0 60341 67500.00000 0 15479921.394 20154140.322 2341440.300 10 0 60341 68400.00000 0 15289639.062 19678841.802 5518965.586 10 0 60341 69300.00000 0 14789240.448 18951528.294 8589482.273 10 0 60341 70200.00000 0 13956791.298 18025554.865 11493523.286 10 0 60341 71100.00000 0 12782697.656 16959323.672 14174890.016 10 0 60341 72000.00000 0 11270338.088 15813733.158 16581728.491 10 0 60341 72900.00000 0 9436161.863 14649544.845 18667519.022 10 0 60341 73800.00000 0 7309248.955 13524777.678 20391961.555 10 0 60341 74700.00000 0 4930349.939 12492238.155 21721740.994 10 0 60341 75600.00000 0 2350444.946 11597288.431 22631159.209 10 0 60341 76500.00000 0 -371119.662 10875944.397 23102622.851 10 0 60341 77400.00000 0 -3168841.155 10353382.021 23126978.585 10 0 60341 78300.00000 0 -5973527.174 10042913.381 22703689.939 10 0 60341 79200.00000 0 -8714919.278 9945474.547 21840852.499 10 0 60341 80100.00000 0 -11324366.677 10049646.641 20555046.835 10 0 60341 81000.00000 0 -13737441.354 10332209.524 18871031.133 10 0 60341 81900.00000 0 -15896387.733 10759205.750 16821278.212 10 0 60341 82800.00000 0 -17752306.347 11287471.267 14445364.325 10 0 60341 83700.00000 0 -19266981.347 11866569.906 11789219.875 10 0 60341 84600.00000 0 -20414275.903 12441051.502 8904254.843 10 0 60341 85500.00000 0 -21181036.852 12952939.544 5846374.437 10 0 60342 0.00000 0 -21567470.092 13344343.968 2674903.190 10 0 60342 900.00000 0 -21586970.223 13560088.973 -548564.064 10 0 60342 1800.00000 0 -21265410.232 13550243.721 -3761357.929 10 0 60342 2700.00000 0 -20639920.982 13272448.384 -6900959.050 10 0 60342 3600.00000 0 -19757210.772 12693934.925 -9906222.870 10 0 60342 4500.00000 0 -18671495.913 11793155.226 -12718581.306 10 0 60342 5400.00000 0 -17442129.777 10560945.429 -15283196.450 10 0 60342 6300.00000 0 -16131030.932 9001174.910 -17550042.521 10 0 60342 7200.00000 0 -14800019.772 7130850.286 -19474893.701 10 0 60342 8100.00000 0 -13508177.034 4979668.124 -21020197.509 10 0 60342 9000.00000 0 -12309336.671 2589033.538 -22155815.818 10 0 60342 9900.00000 0 -11249819.730 10584.747 -22859618.442 10 0 60342 10800.00000 0 -10366505.430 -2695715.273 -23117917.387 10 0 60342 11700.00000 0 -9685321.060 -5463840.547 -22925733.219 10 0 60342 12600.00000 0 -9220214.258 -8224222.656 -22286888.496 10 0 60342 13500.00000 0 -8972650.471 -10906424.724 -21213926.771 10 0 60342 14400.00000 0 -8931655.892 -13441856.946 -19727859.231 10 0 60342 15300.00000 0 -9074402.835 -15766420.206 -17857744.497 10 0 60342 16200.00000 0 -9367311.375 -17822967.505 -15640110.489 10 0 60342 17100.00000 0 -9767619.178 -19563480.807 -13118230.378 10 0 60342 18000.00000 0 -10225351.565 -20950873.095 -10341267.591 10 0 60342 18900.00000 0 -10685607.070 -21960341.454 -7363307.402 10 0 60342 19800.00000 0 -11091060.532 -22580216.118 -4242294.828 10 0 60342 20700.00000 0 -11384576.839 -22812271.778 -1038900.392 10 0 60342 21600.00000 0 -11511824.122 -22671490.214 2184663.472 10 0 60342 22500.00000 0 -11423775.572 -22185286.357 5365851.809 10 0 60342 23400.00000 0 -11078994.222 -21392232.341 8442998.495 10 0 60342 24300.00000 0 -10445604.506 -20340334.883 11356506.051 10 0 60342 25200.00000 0 -9502867.966 -19084939.683 14049991.218 10 0 60342 26100.00000 0 -8242297.283 -17686351.584 16471364.796 10 0 60342 27000.00000 0 -6668262.215 -16207270.549 18573825.866 10 0 60342 27900.00000 0 -4798062.177 -14710150.518 20316752.529 10 0 60342 28800.00000 0 -2661462.233 -13254590.834 21666473.333 10 0 60342 29700.00000 0 -299711.170 -11894868.091 22596905.997 10 0 60342 30600.00000 0 2235918.572 -10677710.009 23090052.433 10 0 60342 31500.00000 0 4886009.960 -9640402.799 23136341.564 10 0 60342 32400.00000 0 7585223.317 -8809309.599 22734813.997 10 0 60342 33300.00000 0 10264771.161 -8198860.740 21893145.190 10 0 60342 34200.00000 0 12855045.465 -7811057.353 20627506.317 10 0 60342 35100.00000 0 15288290.499 -7635508.835 18962264.702 10 0 60342 36000.00000 0 17501212.134 -7650002.904 16929528.362 10 0 60342 36900.00000 0 19437416.563 -7821585.023 14568541.899 10 0 60342 37800.00000 0 21049577.843 -8108102.841 11924943.749 10 0 60342 38700.00000 0 22301244.209 -8460151.757 9049897.452 10 0 60342 39600.00000 0 23168207.476 -8823340.626 5999112.314 10 0 60342 40500.00000 0 23639377.540 -9140782.701 2831771.298 10 0 60342 41400.00000 0 23717124.348 -9355706.814 -390613.825 10 0 60342 42300.00000 0 23417071.784 -9414078.100 -3605398.006 10 0 60342 43200.00000 0 22767351.058 -9267116.437 -6750025.679 10 0 60342 44100.00000 0 21807344.090 -8873604.591 -9763256.304 10 0 60342 45000.00000 0 20585969.228 -8201886.451 -12586367.789 10 0 60342 45900.00000 0 19159581.344 -7231468.612 -15164313.160 10 0 60342 46800.00000 0 17589575.024 -5954155.234 -17446806.618 10 0 60342 47700.00000 0 15939792.401 -4374665.917 -19389316.555 10 0 60342 48600.00000 0 14273845.677 -2510708.415 -20953945.040 10 0 60342 49500.00000 0 12652467.965 -392501.236 -22110175.757 10 0 60342 50400.00000 0 11131004.888 1938235.173 -22835475.150 10 0 60342 51300.00000 0 9757153.124 4429777.372 -23115734.730 10 0 60342 52200.00000 0 8569041.401 7022325.741 -22945545.804 10 0 60342 53100.00000 0 7593734.611 9650278.719 -22328301.435 10 0 60342 54000.00000 0 6846223.477 12244759.293 -21276123.919 10 0 60342 54900.00000 0 6328941.319 14736287.965 -19809619.723 10 0 60342 55800.00000 0 6031826.930 17057490.215 -17957467.209 10 0 60342 56700.00000 0 5932929.240 19145725.229 -15755845.903 10 0 60342 57600.00000 0 5999526.403 20945526.097 -13247719.183 10 0 60342 58500.00000 0 6189710.129 22410749.792 -10481985.213 10 0 60342 59400.00000 0 6454366.437 23506347.755 -7512513.570 10 0 60342 60300.00000 0 6739467.400 24209684.041 -4397087.159 10 0 60342 61200.00000 0 6988575.523 24511347.315 -1196270.930 10 0 60342 62100.00000 0 7145453.746 24415424.362 2027769.871 10 0 60342 63000.00000 0 7156670.008 23939225.612 5212478.402 10 0 60342 63900.00000 0 6974085.978 23112476.052 8296118.013 10 0 60342 64800.00000 0 6557124.893 21976007.269 11218963.615 10 0 60342 65700.00000 0 5874723.150 20580006.875 13924449.900 10 0 60342 66600.00000 0 4906883.877 18981899.699 16360254.790 10 0 60342 67500.00000 0 3645767.625 17243949.900 18479298.236 10 0 60342 68400.00000 0 2096274.638 15430684.171 20240638.321 10 0 60342 69300.00000 0 276094.327 13606243.062 21610248.781 10 0 60342 70200.00000 0 -1784780.568 11831769.831 22561664.415 10 0 60342 71100.00000 0 -4045055.776 10162944.236 23076483.280 10 0 60342 72000.00000 0 -6453612.882 8647762.436 23144717.048 10 0 60342 72900.00000 0 -8951402.656 7324653.837 22764983.467 10 0 60342 73800.00000 0 -11473677.761 6221011.910 21944537.438 10 0 60342 74700.00000 0 -13952474.332 5352199.113 20699139.790 10 0 60342 75600.00000 0 -16319241.565 4721066.725 19052765.519 10 0 60342 76500.00000 0 -18507512.079 4318009.429 17037155.860 10 0 60342 77400.00000 0 -20455503.540 4121552.592 14691221.330 10 0 60342 78300.00000 0 -22108544.315 4099448.182 12060305.601 10 0 60342 79200.00000 0 -23421222.480 4210234.079 9195322.698 10 0 60342 80100.00000 0 -24359168.276 4405191.992 6151782.808 10 0 60342 81000.00000 0 -24900394.766 4630622.119 2988724.337 10 0 60342 81900.00000 0 -25036139.433 4830338.861 -232427.806 10 0 60342 82800.00000 0 -24771170.019 4948281.964 -3449055.769 10 0 60342 83700.00000 0 -24123540.375 4931132.005 -6598570.759 10 0 60342 84600.00000 0 -23123805.277 4730818.270 -9619639.058 10 0 60342 85500.00000 0 -21813726.253 4306811.220 -12453387.177 10 0 60343 0.00000 0 -20244522.428 3628100.531 -15044561.210 10 0 60343 900.00000 0 -18474738.919 2674772.356 -17342617.870 10 0 60343 1800.00000 0 -16567824.904 1439117.828 -19302721.207 10 0 60343 2700.00000 0 -14589520.945 -73777.417 -20886629.107 10 0 60343 3600.00000 0 -12605168.230 -1845988.680 -22063447.854 10 0 60343 4500.00000 0 -10677052.788 -3847256.385 -22810240.828 10 0 60343 5400.00000 0 -8861897.056 -6036019.011 -23112478.851 10 0 60343 6300.00000 0 -7208604.483 -8360932.193 -22964323.330 10 0 60343 7200.00000 0 -5756351.958 -10762810.697 -22368736.752 10 0 60343 8100.00000 0 -4533109.725 -13176911.957 -21337418.718 10 0 60343 9000.00000 0 -3554650.041 -15535465.461 -19890569.220 10 0 60343 9900.00000 0 -2824084.934 -17770341.779 -18056484.354 10 0 60343 10800.00000 0 -2331950.752 -19815749.295 -15870993.061 10 0 60343 11700.00000 0 -2056833.894 -21610845.611 -13376746.611 10 0 60343 12600.00000 0 -1966509.194 -23102154.321 -10622375.541 10 0 60343 13500.00000 0 -2019540.691 -24245686.292 -7661531.364 10 0 60343 14400.00000 0 -2167275.092 -25008677.290 -4551832.554 10 0 60343 15300.00000 0 -2356141.832 -25370870.111 -1353736.237 10 0 60343 16200.00000 0 -2530160.987 -25325288.825 1870641.709 10 0 60343 17100.00000 0 -2633551.893 -24878474.244 5058734.670 10 0 60343 18000.00000 0 -2613331.562 -24050172.394 8148737.529 10 0 60343 18900.00000 0 -2421792.886 -22872490.695 11080799.614 10 0 60343 19800.00000 0 -2018758.163 -21388558.623 13798175.520 10 0 60343 20700.00000 0 -1373513.338 -19650749.985 16248312.187 10 0 60343 21600.00000 0 -466342.045 -17718541.783 18383852.194 10 0 60343 22500.00000 0 710404.593 -15656099.141 20163535.196 10 0 60343 23400.00000 0 2151747.014 -13529686.590 21552981.474 10 0 60343 24300.00000 0 3840048.764 -11405012.602 22525343.997 10 0 60343 25200.00000 0 5745522.293 -9344616.484 23061817.751 10 0 60343 26100.00000 0 7827248.979 -7405404.715 23151997.619 10 0 60343 27000.00000 0 10034672.406 -5636437.380 22794078.618 10 0 60343 27900.00000 0 12309504.698 -4077055.055 21994894.900 10 0 60343 28800.00000 0 14587968.746 -2755422.671 20769796.444 10 0 60343 29700.00000 0 16803285.286 -1687549.841 19142365.099 10 0 60343 30600.00000 0 18888303.460 -876827.914 17143974.201 10 0 60343 31500.00000 0 20778167.092 -314102.864 14813198.757 10 0 60343 32400.00000 0 22412906.787 21718.817 12195085.924 10 0 60343 33300.00000 0 23739850.414 162556.119 9340298.160 10 0 60343 34200.00000 0 24715751.202 149577.571 6304144.143 10 0 60343 35100.00000 0 25308543.826 31229.102 3145515.056 10 0 60343 36000.00000 0 25498653.775 -139051.540 -74253.964 10 0 60343 36900.00000 0 25279803.570 -305337.306 -3292575.323 10 0 60343 37800.00000 0 24659280.325 -411825.059 -6446830.110 10 0 60343 38700.00000 0 23657651.769 -405447.987 -9475594.482 10 0 60343 39600.00000 0 22307941.240 -238375.206 -12319846.421 10 0 60343 40500.00000 0 20654295.278 129709.043 -14924128.147 10 0 60343 41400.00000 0 18750199.185 729645.152 -17237640.253 10 0 60343 42300.00000 0 16656315.352 1581241.944 -19215244.912 10 0 60343 43200.00000 0 14438035.407 2692192.416 -20818357.479 10 0 60343 44100.00000 0 12162849.389 4057509.194 -22015708.166 10 0 60343 45000.00000 0 9897643.057 5659505.180 -22783958.295 10 0 60343 45900.00000 0 7706037.262 7468321.522 -23108158.683 10 0 60343 46800.00000 0 5645881.400 9442981.656 -22982041.164 10 0 60343 47700.00000 0 3767006.160 11532927.622 -22408137.611 10 0 60343 48600.00000 0 2109329.499 13679974.351 -21397724.501 10 0 60343 49500.00000 0 701394.501 15820599.839 -19970594.515 10 0 60343 50400.00000 0 -440600.730 17888474.839 -18154660.260 10 0 60343 51300.00000 0 -1313242.104 19817125.640 -15985398.479 10 0 60343 52200.00000 0 -1925791.102 21542617.958 -13505146.367 10 0 60343 53100.00000 0 -2299535.690 23006149.151 -10762264.553 10 0 60343 54000.00000 0 -2466630.395 24156440.051 -7810183.922 10 0 60343 54900.00000 0 -2468476.809 24951826.393 -4706355.732 10 0 60343 55800.00000 0 -2353715.137 25361962.693 -1511126.345 10 0 60343 56700.00000 0 -2175913.499 25369068.008 1713440.765 10 0 60343 57600.00000 0 -1991054.153 24968662.533 4904772.250 10 0 60343 58500.00000 0 -1854923.879 24169765.487 8000997.510 10 0 60343 59400.00000 0 -1820519.312 22994547.420 10942143.139 10 0 60343 60300.00000 0 -1935576.843 21477452.781 13671286.317 10 0 60343 61200.00000 0 -2240330.975 19663830.539 16135645.454 10 0 60343 62100.00000 0 -2765595.048 17608130.730 18287587.982 10 0 60343 63000.00000 0 -3531244.460 15371742.361 20085537.082 10 0 60343 63900.00000 0 -4545165.572 13020562.458 21494761.273 10 0 60343 64800.00000 0 -5802714.157 10622396.573 22488033.070 10 0 60343 65700.00000 0 -7286706.208 8244297.473 23046145.434 10 0 60343 66600.00000 0 -8967942.184 5949950.956 23158277.117 10 0 60343 67500.00000 0 -10806243.928 3797215.485 22822200.635 10 0 60343 68400.00000 0 -12751962.695 1835915.906 22044329.126 10 0 60343 69300.00000 0 -14747897.363 105981.255 20839600.943 10 0 60343 70200.00000 0 -16731545.055 -1363997.380 19231203.461 10 0 60343 71100.00000 0 -18637592.520 -2557729.887 17250140.253 10 0 60343 72000.00000 0 -20400546.250 -3471671.416 14934648.458 10 0 60343 72900.00000 0 -21957393.045 -4114929.509 12329475.930 10 0 60343 73800.00000 0 -23250180.809 -4508637.661 9485030.420 10 0 60343 74700.00000 0 -24228411.812 -4684821.138 6456415.735 10 0 60343 75600.00000 0 -24851147.804 -4684802.148 3302372.336 10 0 60343 76500.00000 0 -25088737.662 -4557211.121 84142.069 10 0 60343 77400.00000 0 -24924093.516 -4355687.774 -3135721.201 10 0 60343 78300.00000 0 -24353459.940 -4136369.339 -6294571.799 10 0 60343 79200.00000 0 -23386641.947 -3955272.781 -9330898.940 10 0 60343 80100.00000 0 -22046680.384 -3865682.946 -12185535.051 10 0 60343 81000.00000 0 -20368986.845 -3915658.700 -14802820.965 10 0 60343 81900.00000 0 -18399973.299 -4145764.449 -17131703.998 10 0 60343 82800.00000 0 -16195233.371 -4587125.012 -19126746.162 10 0 60343 83700.00000 0 -13817351.357 -5259888.110 -20749021.739 10 0 60343 84600.00000 0 -11333431.052 -6172161.338 -21966885.778 10 0 60343 85500.00000 0 -8812448.391 -7319470.106 -22756597.832 99